Date String (YYYY-MM-DD hh:mm:ss) UTC,Instrument flags,absolute air pressure of the measurement (hPa),sample flow rate (lpm),inlet stack bypass flow (lpm),air temperature of the measurement (°C),ambient temperature measured by the external sensor (°C),aerosol sample conditioner tube jacket temperature (°C),OPC LED temperature (°C),internal box temperature (°C),relative humidity of the measurement (%),span deviation,mass concentration of particles derived from Lorenz-Mie calculation of OPC scattering (μg/m³),mass concentration of particles derived from Lorenz-Mie calculation of OPC scattering (μg/m³),mass concentration of particles derived from Lorenz-Mie calculation of OPC scattering (μg/m³)
DateTimeUTC,F1_M11,P_M11,Q1_M11,Q2_M11,T1_M11,T2_M11,T3_M11,T4_M11,T5_M11,U1_M11,ZSPAN_M11,X0_M11,X2_M11,X1_M11
2023-10-04 09:00:00,SystemResetWarning,0831.4,5.00,000.00,029.2,027.9,000.0,037.5,030.9,14.6,0000.0,0006.78,0002.49,0001.88
2023-10-04 09:01:00,SystemResetWarning,0831.5,5.00,000.00,029.2,027.9,000.0,037.5,030.9,14.6,0000.0,0006.25,0002.52,0001.89
2023-10-04 09:02:00,SystemResetWarning,0831.4,5.00,000.00,029.2,027.9,000.0,037.5,030.9,14.7,0000.0,0005.85,0002.55,0001.89
2023-10-04 09:03:00,SystemResetWarning,0831.5,5.01,000.00,029.2,027.9,000.0,037.6,030.9,14.7,0000.0,0005.94,0002.58,0001.91
2023-10-04 09:04:00,SystemResetWarning,0831.5,5.01,000.00,029.2,027.9,000.0,037.6,030.9,14.7,0000.0,0006.26,0002.64,0001.93
2023-10-04 09:05:00,SystemResetWarning,0831.4,5.00,000.00,029.2,027.9,000.0,037.6,030.9,14.7,0000.0,0006.31,0002.68,0001.93
2023-10-04 09:06:00,SystemResetWarning,0831.4,5.00,000.00,029.2,027.9,000.0,037.6,030.9,14.8,0000.0,0006.35,0002.75,0001.95
2023-10-04 09:07:00,SystemResetWarning,0831.4,5.00,000.00,029.2,027.9,000.0,037.6,030.9,14.8,0000.0,0006.29,0002.77,0001.97
2023-10-04 09:08:00,SystemResetWarning,0831.4,4.99,000.00,029.2,027.9,000.0,037.6,030.8,14.8,0000.0,0006.17,0002.76,0001.97
2023-10-04 09:09:00,SystemResetWarning,0831.4,5.00,000.00,029.2,027.9,000.0,037.6,030.8,14.8,0000.0,0005.94,0002.73,0001.96
2023-10-04 09:10:00,SystemResetWarning,0831.4,5.01,000.00,029.3,027.9,000.0,037.6,030.9,14.7,0000.0,0005.86,0002.73,0001.95
2023-10-04 09:11:00,SystemResetWarning,0831.4,5.00,000.00,029.3,028.0,000.0,037.6,030.9,14.7,0000.0,0004.77,0002.74,0001.95
2023-10-04 09:12:00,SystemResetWarning,0831.5,5.00,000.00,029.3,028.0,000.0,037.6,030.9,14.8,0000.0,0005.10,0002.77,0001.96
2023-10-04 09:13:00,SystemResetWarning,0831.4,5.01,000.00,029.3,028.0,000.0,037.6,030.9,14.8,0000.0,0005.43,0002.79,0001.97
2023-10-04 09:14:00,SystemResetWarning,0831.4,5.00,000.00,029.3,028.0,000.0,037.7,030.9,14.8,0000.0,0005.38,0002.79,0001.96
2023-10-04 09:15:00,SystemResetWarning,0831.4,4.99,000.00,029.3,028.0,000.0,037.7,030.9,14.7,0000.0,0005.18,0002.78,0001.96
2023-10-04 09:16:00,SystemResetWarning,0831.4,5.00,000.00,029.3,028.0,000.0,037.7,030.9,14.8,0000.0,0005.54,0002.73,0001.95
2023-10-04 09:17:00,SystemResetWarning,0831.4,5.00,000.00,029.3,028.0,000.0,037.7,030.9,14.7,0000.0,0005.60,0002.63,0001.94
2023-10-04 09:18:00,SystemResetWarning,0831.5,5.00,000.00,029.3,028.0,000.0,037.7,030.9,14.7,0000.0,0005.58,0002.63,0001.94
2023-10-04 09:19:00,SystemResetWarning,0831.4,5.00,000.00,029.3,028.0,000.0,037.7,030.9,14.7,0000.0,0005.55,0002.62,0001.94
2023-10-04 09:20:00,SystemResetWarning,0831.4,5.00,000.00,029.3,028.0,000.0,037.7,030.9,14.8,0000.0,0005.63,0002.68,0001.95
2023-10-04 09:21:00,SystemResetWarning,0831.4,5.00,000.00,029.3,028.0,000.0,037.7,030.9,14.8,0000.0,0005.71,0002.68,0001.95
2023-10-04 09:22:00,SystemResetWarning,0831.4,5.00,000.00,029.3,028.0,000.0,037.7,030.9,14.8,0000.0,0005.61,0002.64,0001.95
2023-10-04 09:23:00,SystemResetWarning,0831.5,5.00,000.00,029.3,028.0,000.0,037.7,030.9,14.8,0000.0,0005.14,0002.56,0001.94
2023-10-04 09:24:00,SystemResetWarning,0831.4,4.99,000.00,029.3,028.0,000.0,037.7,030.9,14.7,0000.0,0004.54,0002.53,0001.93
2023-10-04 09:25:00,SystemResetWarning,0831.5,5.00,000.00,029.4,028.1,000.0,037.7,031.0,14.7,0000.0,0004.41,0002.49,0001.93
2023-10-04 09:26:00,SystemResetWarning,0831.5,5.00,000.00,029.4,028.1,000.0,037.7,031.0,14.7,0000.0,0004.40,0002.49,0001.93
2023-10-04 09:27:00,SystemResetWarning,0831.4,4.99,000.00,029.4,028.1,000.0,037.8,031.0,14.7,0000.0,0004.18,0002.55,0001.94
2023-10-04 09:28:00,SystemResetWarning,0831.5,5.01,000.00,029.4,028.1,000.0,037.8,031.0,14.7,0000.0,0003.81,0002.56,0001.94
2023-10-04 09:29:00,SystemResetWarning,0831.5,5.00,000.00,029.4,028.1,000.0,037.8,031.0,14.7,0000.0,0003.84,0002.56,0001.93
2023-10-04 09:30:00,SystemResetWarning,0831.5,5.01,000.00,029.4,028.1,000.0,037.8,031.0,14.7,0000.0,0004.10,0002.56,0001.92
2023-10-04 09:31:00,SystemResetWarning,0831.5,5.01,000.00,029.4,028.1,000.0,037.8,030.9,14.7,0000.0,0004.24,0002.54,0001.92
2023-10-04 09:32:00,SystemResetWarning,0831.5,4.99,000.00,029.4,028.0,000.0,037.8,030.9,14.8,0000.0,0004.15,0002.53,0001.91
2023-10-04 09:33:00,SystemResetWarning,0831.5,5.00,000.00,029.4,028.0,000.0,037.8,030.9,14.9,0000.0,0004.29,0002.56,0001.92
2023-10-04 09:34:00,SystemResetWarning,0831.5,5.00,000.00,029.4,028.0,000.0,037.8,030.9,14.9,0000.0,0004.49,0002.61,0001.91
2023-10-04 09:35:00,SystemResetWarning,0831.4,5.00,000.00,029.4,028.0,000.0,037.8,030.9,14.9,0000.0,0005.05,0002.66,0001.91
2023-10-04 09:36:00,SystemResetWarning,0831.5,5.00,000.00,029.4,028.0,000.0,037.8,031.0,14.9,0000.0,0005.23,0002.67,0001.91
2023-10-04 09:37:00,SystemResetWarning,0831.5,5.00,000.00,029.4,028.1,000.0,037.8,031.0,14.9,0000.0,0005.28,0002.68,0001.92
2023-10-04 09:38:00,SystemResetWarning,0831.5,5.01,000.00,029.4,028.1,000.0,037.8,031.0,14.9,0000.0,0005.43,0002.64,0001.92
2023-10-04 09:39:00,SystemResetWarning,0831.5,5.00,000.00,029.4,028.1,000.0,037.8,031.0,14.9,0000.0,0005.94,0002.69,0001.92
2023-10-04 09:40:00,SystemResetWarning,0831.5,5.01,000.00,029.4,028.1,000.0,037.8,031.0,14.9,0000.0,0006.56,0002.74,0001.91
2023-10-04 09:41:00,SystemResetWarning,0831.5,4.99,000.00,029.4,027.4,000.0,037.8,031.0,14.9,0000.0,0007.13,0002.76,0001.92
2023-10-04 09:42:00,SystemResetWarning,0831.5,5.00,000.00,029.3,025.3,000.0,037.7,030.8,15.0,0000.0,0008.06,0002.77,0001.92
2023-10-04 09:43:00,SystemResetWarning,0831.5,5.01,000.00,029.2,024.6,000.0,037.7,030.6,15.0,0000.0,0008.16,0002.74,0001.91
2023-10-04 09:44:00,SystemResetWarning,0831.5,5.01,000.00,029.1,024.8,000.0,037.7,030.3,15.1,0000.0,0008.19,0002.78,0001.90
2023-10-04 09:45:00,SystemResetWarning,0831.5,4.99,000.00,029.0,025.1,000.0,037.7,030.2,15.2,0000.0,0008.07,0002.75,0001.91
2023-10-04 09:46:00,SystemResetWarning,0831.5,5.00,000.00,028.9,025.5,000.0,037.6,030.3,15.3,0000.0,0007.83,0002.70,0001.91
2023-10-04 09:47:00,SystemResetWarning,0831.5,5.00,000.00,028.9,025.9,000.0,037.6,030.3,15.3,0000.0,0007.68,0002.67,0001.91
2023-10-04 09:48:00,SystemResetWarning,0831.5,5.01,000.00,028.9,026.2,000.0,037.5,030.3,15.4,0000.0,0007.84,0002.74,0001.90
2023-10-04 09:49:00,SystemResetWarning,0831.5,4.99,000.00,028.9,026.5,000.0,037.5,030.4,15.4,0000.0,0007.72,0002.75,0001.88
2023-10-04 09:50:00,SystemResetWarning,0831.6,4.99,000.00,028.9,026.7,000.0,037.4,030.4,15.4,0000.0,0007.42,0002.70,0001.87
2023-10-04 09:51:00,SystemResetWarning,0831.6,5.00,000.00,028.9,026.9,000.0,037.4,030.5,15.5,0000.0,0007.13,0002.67,0001.87
2023-10-04 09:52:00,SystemResetWarning,0831.6,4.99,000.00,028.9,027.0,000.0,037.4,030.5,15.5,0000.0,0006.91,0002.66,0001.86
2023-10-04 09:53:00,SystemResetWarning,0831.6,5.00,000.00,028.9,027.2,000.0,037.4,030.5,15.5,0000.0,0005.67,0002.67,0001.86
2023-10-04 09:54:00,SystemResetWarning,0831.6,5.00,000.00,028.9,027.3,000.0,037.4,030.5,15.5,0000.0,0005.70,0002.68,0001.86
2023-10-04 09:55:00,SystemResetWarning,0831.6,5.00,000.00,028.9,027.3,000.0,037.4,030.5,15.5,0000.0,0006.11,0002.70,0001.86
2023-10-04 09:56:00,SystemResetWarning,0831.6,5.00,000.00,028.9,027.4,000.0,037.4,030.5,15.5,0000.0,0006.18,0002.73,0001.86
2023-10-04 09:57:00,SystemResetWarning,0831.6,5.00,000.00,028.9,027.4,000.0,037.4,030.5,15.5,0000.0,0006.11,0002.69,0001.86
2023-10-04 09:58:00,SystemResetWarning,0831.6,5.01,000.00,028.9,027.5,000.0,037.3,030.5,15.5,0000.0,0006.10,0002.70,0001.85
2023-10-04 09:59:00,SystemResetWarning,0831.6,5.00,000.00,028.9,027.5,000.0,037.3,030.5,15.5,0000.0,0005.86,0002.64,0001.85
